QFA596 YBCG-YWLM

Flight info

Callsign QFA596
Flight time 0h 50m
Altitude 30000
Route GOMOL Q16 APAGI H91 SANAD/N0345F190 V779 LAXUM DCT WLM
Aircraft B738/M-SDE2E3FGHIRWXY/LB1

Departure

Time 2026-04-25 02:22
Airport Gold Coast Airport (YBCG)

Arrival

Time 2026-04-25 03:12
Airport Newcastle Airport (YWLM)
Time Latitude Longitude Altitude Speed Heading
2026-04-25 02:06 -28.16765 153.51202 23 ft 0 kts 61°
2026-04-25 02:15 -28.16764 153.51204 23 ft 1 kts 61°
2026-04-25 02:16 -28.16766 153.51199 23 ft 2 kts 61°
2026-04-25 02:16 -28.16774 153.51184 23 ft 2 kts 61°
2026-04-25 02:16 -28.16777 153.51170 22 ft 1 kts 111°
2026-04-25 02:16 -28.16773 153.51163 22 ft 0 kts 147°
2026-04-25 02:17 -28.16766 153.51160 22 ft 1 kts 150°
2026-04-25 02:17 -28.16765 153.51158 22 ft 0 kts 150°
2026-04-25 02:18 -28.16795 153.51161 22 ft 13 kts 197°
2026-04-25 02:19 -28.16854 153.51088 22 ft 13 kts 272°
2026-04-25 02:19 -28.16719 153.50966 22 ft 40 kts 331°
2026-04-25 02:19 -28.16445 153.50794 23 ft 41 kts 330°
2026-04-25 02:19 -28.16323 153.50632 25 ft 18 kts 259°
2026-04-25 02:20 -28.16390 153.50546 25 ft 10 kts 181°
2026-04-25 02:20 -28.16405 153.50554 25 ft 0 kts 146°
2026-04-25 02:20 -28.16406 153.50554 25 ft 0 kts 146°
2026-04-25 02:20 -28.16407 153.50555 25 ft 0 kts 146°
2026-04-25 02:21 -28.16408 153.50555 25 ft 0 kts 147°
2026-04-25 02:21 -28.16469 153.50594 25 ft 48 kts 152°
2026-04-25 02:21 -28.17103 153.50998 23 ft 151 kts 151°
2026-04-25 02:22 -28.18120 153.51639 894 ft 176 kts 151°
2026-04-25 02:22 -28.18786 153.51978 3256 ft 98 kts 151°
2026-04-25 02:22 -28.19148 153.52075 3761 ft 99 kts 153°
2026-04-25 02:22 -28.20106 153.52583 3643 ft 174 kts 148°
2026-04-25 02:23 -28.20589 153.52826 5755 ft 57 kts 147°
2026-04-25 02:23 -28.21242 153.53137 4880 ft 164 kts 153°
2026-04-25 02:23 -28.22497 153.53702 3797 ft 232 kts 156°
2026-04-25 02:23 -28.23946 153.54338 4185 ft 224 kts 155°
2026-04-25 02:24 -28.25508 153.54857 4849 ft 251 kts 172°
2026-04-25 02:24 -28.27333 153.54442 5569 ft 296 kts 203°
2026-04-25 02:24 -28.28932 153.52872 6305 ft 314 kts 231°
2026-04-25 02:24 -28.29996 153.50684 7027 ft 323 kts 243°
2026-04-25 02:25 -28.30921 153.48334 7940 ft 336 kts 242°
2026-04-25 02:25 -28.32031 153.45926 8922 ft 359 kts 237°
2026-04-25 02:25 -28.33379 153.43471 9897 ft 382 kts 234°
2026-04-25 02:25 -28.34923 153.40915 10891 ft 403 kts 232°
2026-04-25 02:26 -28.36660 153.38402 11866 ft 410 kts 223°
2026-04-25 02:26 -28.38849 153.36282 12934 ft 415 kts 212°
2026-04-25 02:26 -28.41255 153.34580 14298 ft 417 kts 206°
2026-04-25 02:26 -28.43791 153.32999 15658 ft 420 kts 205°
2026-04-25 02:27 -28.46378 153.31386 16950 ft 427 kts 206°
2026-04-25 02:27 -28.48922 153.29715 18226 ft 432 kts 207°
2026-04-25 02:27 -28.51506 153.27922 19493 ft 437 kts 209°
2026-04-25 02:27 -28.54055 153.26080 20614 ft 444 kts 210°
2026-04-25 02:28 -28.56639 153.24175 21838 ft 448 kts 210°
2026-04-25 02:28 -28.59255 153.22226 22963 ft 453 kts 210°
2026-04-25 02:28 -28.61909 153.20245 24112 ft 457 kts 210°
2026-04-25 02:28 -28.64567 153.18262 25100 ft 463 kts 210°
2026-04-25 02:29 -28.67286 153.16235 26077 ft 470 kts 210°
2026-04-25 02:29 -28.70026 153.14194 27112 ft 473 kts 209°
2026-04-25 02:29 -28.72747 153.12163 28426 ft 470 kts 209°
2026-04-25 02:29 -28.75434 153.10155 29822 ft 464 kts 209°
2026-04-25 02:30 -28.78097 153.08162 31063 ft 457 kts 209°
2026-04-25 02:30 -28.80722 153.06200 32228 ft 449 kts 209°
2026-04-25 02:30 -28.83294 153.04275 33346 ft 440 kts 209°
2026-04-25 02:30 -28.85839 153.02374 34221 ft 437 kts 209°
2026-04-25 02:31 -28.88361 153.00493 34959 ft 435 kts 210°
2026-04-25 02:31 -28.90902 152.98599 35601 ft 436 kts 210°
2026-04-25 02:31 -28.93464 152.96692 35982 ft 443 kts 210°
2026-04-25 02:31 -28.96060 152.94760 36402 ft 444 kts 210°
2026-04-25 02:32 -28.98615 152.92850 37059 ft 437 kts 210°
2026-04-25 02:32 -29.01151 152.90948 37720 ft 434 kts 210°
2026-04-25 02:32 -29.03639 152.89084 38270 ft 434 kts 210°
2026-04-25 02:33 -29.08780 152.85237 38351 ft 444 kts 210°
2026-04-25 02:33 -29.13914 152.81384 38351 ft 439 kts 210°
2026-04-25 02:34 -29.19030 152.77537 38353 ft 440 kts 210°
2026-04-25 02:34 -29.24142 152.73692 38348 ft 439 kts 210°
2026-04-25 02:35 -29.29217 152.69869 38350 ft 438 kts 210°
2026-04-25 02:35 -29.34304 152.66031 38351 ft 438 kts 210°
2026-04-25 02:36 -29.39402 152.62180 38358 ft 437 kts 210°
2026-04-25 02:36 -29.44448 152.58365 38357 ft 435 kts 210°
2026-04-25 02:37 -29.49523 152.54524 38359 ft 437 kts 210°
2026-04-25 02:37 -29.54577 152.50696 38364 ft 435 kts 210°
2026-04-25 02:38 -29.59632 152.46858 38366 ft 436 kts 209°
2026-04-25 02:38 -29.64686 152.43021 38358 ft 434 kts 210°
2026-04-25 02:38 -29.67177 152.41126 37974 ft 433 kts 209°
2026-04-25 02:39 -29.69681 152.39218 37253 ft 433 kts 209°
2026-04-25 02:39 -29.72186 152.37311 36688 ft 429 kts 209°
2026-04-25 02:39 -29.74661 152.35423 36075 ft 427 kts 209°
2026-04-25 02:39 -29.77131 152.33539 35465 ft 426 kts 209°
2026-04-25 02:40 -29.79610 152.31654 34865 ft 430 kts 209°
2026-04-25 02:40 -29.82073 152.29778 34588 ft 422 kts 209°
2026-04-25 02:40 -29.84515 152.27910 34681 ft 424 kts 209°
2026-04-25 02:40 -29.86995 152.26021 34685 ft 439 kts 208°
2026-04-25 02:41 -29.89569 152.24063 34682 ft 445 kts 209°
2026-04-25 02:41 -29.94728 152.20122 34679 ft 443 kts 209°
2026-04-25 02:42 -29.99841 152.16196 34687 ft 439 kts 209°
2026-04-25 02:42 -30.04933 152.12285 34692 ft 442 kts 209°
2026-04-25 02:43 -30.10017 152.08379 34690 ft 441 kts 210°
2026-04-25 02:43 -30.15068 152.04324 34689 ft 441 kts 211°
2026-04-25 02:44 -30.19978 152.00063 34694 ft 443 kts 213°
2026-04-25 02:44 -30.24703 151.95535 34697 ft 445 kts 216°
2026-04-25 02:45 -30.29280 151.90674 34692 ft 447 kts 219°
2026-04-25 02:45 -30.33913 151.85989 34669 ft 435 kts 204°
2026-04-25 02:45 -30.36692 151.84843 34265 ft 422 kts 186°
2026-04-25 02:46 -30.39587 151.84850 33725 ft 414 kts 170°
2026-04-25 02:46 -30.42372 151.85591 32933 ft 417 kts 163°
2026-04-25 02:46 -30.45166 151.86580 32090 ft 422 kts 162°
2026-04-25 02:46 -30.48008 151.87482 31218 ft 428 kts 165°
2026-04-25 02:47 -30.50919 151.88065 31292 ft 420 kts 170°
2026-04-25 02:47 -30.53862 151.88329 31705 ft 432 kts 175°
2026-04-25 02:47 -30.56935 151.88347 32207 ft 441 kts 179°
2026-04-25 02:47 -30.59996 151.88194 32392 ft 448 kts 180°
2026-04-25 02:48 -30.63115 151.87930 32402 ft 442 kts 181°
2026-04-25 02:48 -30.69177 151.87271 32400 ft 439 kts 182°
2026-04-25 02:49 -30.75250 151.86583 32398 ft 440 kts 182°
2026-04-25 02:49 -30.81372 151.85902 32396 ft 439 kts 182°
2026-04-25 02:50 -30.87477 151.85229 32396 ft 440 kts 182°
2026-04-25 02:50 -30.93544 151.84561 32398 ft 439 kts 182°
2026-04-25 02:51 -30.99619 151.83907 32392 ft 440 kts 182°
2026-04-25 02:51 -31.05706 151.83244 32393 ft 439 kts 182°
2026-04-25 02:52 -31.11783 151.82576 32006 ft 439 kts 182°
2026-04-25 02:52 -31.14820 151.82240 31287 ft 439 kts 181°
2026-04-25 02:52 -31.17855 151.81906 30486 ft 441 kts 181°
2026-04-25 02:52 -31.20933 151.81569 29504 ft 446 kts 181°
2026-04-25 02:53 -31.23990 151.81235 28740 ft 445 kts 181°
2026-04-25 02:53 -31.27107 151.80894 27687 ft 451 kts 181°
2026-04-25 02:53 -31.30204 151.80559 26681 ft 455 kts 182°
2026-04-25 02:53 -31.33378 151.80212 25745 ft 456 kts 182°
2026-04-25 02:54 -31.36517 151.79869 24768 ft 458 kts 182°
2026-04-25 02:54 -31.39688 151.79520 23794 ft 460 kts 182°
2026-04-25 02:54 -31.42864 151.79167 22987 ft 457 kts 182°
2026-04-25 02:54 -31.46020 151.78816 22212 ft 453 kts 182°
2026-04-25 02:55 -31.49141 151.78468 21503 ft 447 kts 183°
2026-04-25 02:55 -31.52210 151.78125 20801 ft 442 kts 183°
2026-04-25 02:55 -31.55253 151.77783 20088 ft 437 kts 183°
2026-04-25 02:55 -31.58257 151.77447 19309 ft 434 kts 182°
2026-04-25 02:56 -31.61249 151.77116 18464 ft 433 kts 183°
2026-04-25 02:56 -31.64248 151.76785 17787 ft 426 kts 183°
2026-04-25 02:56 -31.67167 151.76462 17104 ft 421 kts 183°
2026-04-25 02:56 -31.70060 151.76141 16388 ft 417 kts 183°
2026-04-25 02:57 -31.72961 151.75819 15649 ft 413 kts 183°
2026-04-25 02:57 -31.75796 151.75505 14824 ft 412 kts 183°
2026-04-25 02:57 -31.78619 151.75191 14492 ft 402 kts 183°
2026-04-25 02:57 -31.81449 151.74878 15166 ft 417 kts 183°
2026-04-25 02:58 -31.84354 151.74562 16179 ft 428 kts 183°
2026-04-25 02:58 -31.87343 151.74236 16391 ft 429 kts 183°
2026-04-25 02:58 -31.90257 151.73910 16010 ft 420 kts 183°
2026-04-25 02:58 -31.93149 151.73584 15402 ft 413 kts 183°
2026-04-25 02:59 -31.96003 151.73262 14720 ft 408 kts 183°
2026-04-25 02:59 -31.98810 151.72946 13998 ft 404 kts 183°
2026-04-25 02:59 -32.01594 151.72635 13274 ft 401 kts 183°
2026-04-25 02:59 -32.04319 151.72331 12555 ft 398 kts 183°
2026-04-25 03:00 -32.07099 151.72021 11782 ft 396 kts 182°
2026-04-25 03:00 -32.09779 151.71724 11299 ft 384 kts 183°
2026-04-25 03:00 -32.12386 151.71429 10610 ft 364 kts 182°
2026-04-25 03:00 -32.14861 151.71150 10114 ft 343 kts 182°
2026-04-25 03:01 -32.17150 151.70894 9764 ft 322 kts 182°
2026-04-25 03:01 -32.19298 151.70651 9534 ft 301 kts 182°
2026-04-25 03:01 -32.21362 151.70421 9034 ft 293 kts 182°
2026-04-25 03:01 -32.23382 151.70200 8420 ft 290 kts 182°
2026-04-25 03:02 -32.25356 151.69984 7817 ft 287 kts 182°
2026-04-25 03:02 -32.27326 151.69765 7351 ft 279 kts 182°
2026-04-25 03:02 -32.29212 151.69551 7226 ft 258 kts 182°
2026-04-25 03:02 -32.30906 151.69356 7211 ft 237 kts 182°
2026-04-25 03:03 -32.32538 151.69173 7215 ft 235 kts 182°
2026-04-25 03:03 -32.34173 151.68951 7222 ft 241 kts 185°
2026-04-25 03:03 -32.35956 151.68643 7232 ft 269 kts 185°
2026-04-25 03:03 -32.37824 151.68303 7018 ft 273 kts 186°
2026-04-25 03:04 -32.39688 151.67958 6544 ft 276 kts 186°
2026-04-25 03:04 -32.41622 151.67610 6127 ft 277 kts 186°
2026-04-25 03:04 -32.43495 151.67279 5938 ft 270 kts 186°
2026-04-25 03:05 -32.47246 151.66617 5931 ft 271 kts 186°
2026-04-25 03:05 -32.49084 151.66290 5843 ft 260 kts 186°
2026-04-25 03:05 -32.50840 151.65979 5760 ft 250 kts 186°
2026-04-25 03:05 -32.52537 151.65678 5678 ft 241 kts 186°
2026-04-25 03:06 -32.54167 151.65392 5587 ft 232 kts 185°
2026-04-25 03:06 -32.55741 151.65112 5440 ft 227 kts 185°
2026-04-25 03:06 -32.57331 151.64833 5076 ft 233 kts 185°
2026-04-25 03:06 -32.58991 151.64545 4340 ft 255 kts 186°
2026-04-25 03:07 -32.60830 151.64226 3333 ft 283 kts 186°
2026-04-25 03:07 -32.62809 151.63895 2690 ft 290 kts 184°
2026-04-25 03:07 -32.64726 151.63915 2857 ft 264 kts 167°
2026-04-25 03:07 -32.66334 151.64751 2883 ft 242 kts 138°
2026-04-25 03:08 -32.67319 151.66261 2890 ft 223 kts 115°
2026-04-25 03:08 -32.68100 151.67778 2882 ft 211 kts 129°
2026-04-25 03:08 -32.69136 151.68944 2872 ft 195 kts 132°
2026-04-25 03:08 -32.69967 151.70145 2623 ft 184 kts 124°
2026-04-25 03:09 -32.70770 151.71281 2374 ft 178 kts 129°
2026-04-25 03:09 -32.71575 151.72365 2142 ft 172 kts 127°
2026-04-25 03:09 -32.72314 151.73407 1945 ft 154 kts 127°
2026-04-25 03:09 -32.72969 151.74301 1715 ft 135 kts 127°
2026-04-25 03:10 -32.73552 151.75122 1551 ft 126 kts 127°
2026-04-25 03:10 -32.74119 151.75903 1398 ft 124 kts 128°
2026-04-25 03:10 -32.74683 151.76686 1237 ft 123 kts 127°
2026-04-25 03:10 -32.75238 151.77455 1080 ft 124 kts 129°
2026-04-25 03:11 -32.75797 151.78230 918 ft 122 kts 129°
2026-04-25 03:11 -32.76352 151.78999 752 ft 123 kts 129°
2026-04-25 03:11 -32.76913 151.79774 589 ft 123 kts 129°
2026-04-25 03:11 -32.77464 151.80542 433 ft 122 kts 130°
2026-04-25 03:12 -32.78012 151.81300 277 ft 122 kts 130°
2026-04-25 03:12 -32.78558 151.82059 121 ft 121 kts 130°
2026-04-25 03:12 -32.79068 151.82767 35 ft 92 kts 131°
2026-04-25 03:12 -32.79349 151.83148 35 ft 37 kts 130°
2026-04-25 03:13 -32.79439 151.83273 35 ft 13 kts 130°
2026-04-25 03:13 -32.79578 151.83469 35 ft 34 kts 130°
2026-04-25 03:13 -32.79736 151.83685 35 ft 38 kts 130°
2026-04-25 03:13 -32.79893 151.83852 35 ft 25 kts 167°
2026-04-25 03:14 -32.79954 151.83847 35 ft 10 kts 189°
2026-04-25 03:14 -32.80121 151.83821 35 ft 24 kts 173°
2026-04-25 03:14 -32.80238 151.83922 35 ft 18 kts 131°
2026-04-25 03:14 -32.80308 151.84019 35 ft 1 kts 150°
2026-04-25 03:15 -32.80342 151.84021 35 ft 3 kts 214°
2026-04-25 03:15 -32.80348 151.84000 35 ft 0 kts 260°